Location: *
(40.7190°N, 4.2480°W)
Time: 19:15:29
(UTC+00:00)

METEOR-M - Pass Details

Date: 18 February 2020
Orbit: 815 x 820 km, 98.4° (Epoch: 05 April)

Event Time Altitude Azimuth Distance (km) Brightness Sun altitude
Rises 05:42:30 0° 11° (N) 3,355 7.4 -16.8°
Reaches altitude 10° 05:44:51 10° 10° (N) 2,418 6.7 -16.4°
Maximum altitude 05:50:12 76° 285° (WNW) 846 4.0 -15.4°
Drops below altitude 10° 05:55:30 10° 201° (SSW) 2,399 6.4 -14.4°
Sets 05:57:50 0° 200° (SSW) 3,327 7.1 -13.9°
